Location: Unspecified
(0.0000°N, 0.0000°E)
Time: 18:51:35
(UTC+00:00)

BREEZE-M R/B - Visible Passes

Search period start: 25 February 2021 00:00
Search period end: 07 March 2021 00:00
Orbit: 2870 x 63407 km, 23.7° (Epoch: 23 February)

Date Brightness Start Highest point End Pass type
(mag) Time Alt. Az. Time Alt. Az. Time Alt. Az.
25 Feb ? 17:33:07 10° SW 17:45:35 38° SSE 18:26:20 10° E daylight
26 Feb ? 21:49:29 10° ENE 04:24:37 64° N 12:57:06 10° SE visible
27 Feb ? 22:33:23 10° ENE 05:25:22 65° N 10:31:09 10° ESE visible
28 Feb ? 23:14:30 10° ENE 06:44:34 67° NE 08:02:10 10° ESE visible
02 Mar ? 00:07:55 10° ENE 03:52:06 34° ENE 05:20:42 10° E visible
04 Mar ? 02:36:52 10° W 03:57:40 25° WNW 06:40:17 10° WNW visible
04 Mar ? 23:47:09 10° W 01:39:09 59° NW 07:42:30 10° WNW visible
05 Mar ? 21:16:28 10° WSW 21:49:41 86° NNW 08:24:51 10° WNW visible
